Starlink 30564

operational
NORAD ID: 58043 Int'l Des: 2023-156 Owner: SPXS Country: US Constellation: starlink
LEOCIRCULAR

Über Starlink 30564

Beschreibung wird geladen...

Live-Position

3D-Globus wird geladen...

Nächste Überflüge

Höhenverlauf

Altitude vs Time

uPlot chart will show altitude changes over time

Zweizeiliger Elementsatz

1 58043U 23156R 25305.29199517 -.00044389 00000-0 -14971-2 0 9999
2 58043 53.1603 314.8836 0001617 108.0612 252.0565 15.30164380116651
Epoch: 1. Nov. 2025 • Age: 26 hours

Aktueller Status

Höhe 477.0 km
Geschwindigkeit 7.63 km/s
Subsatellitenpunkt 34.26°N, 72.65°W
Startdatum 9. Okt. 2023
Alter 2 years
Typ internet

Technische Details

Klassifizierung Payload
Masse 730.00 kg
Trockenmasse 700.00 kg
Gesamtmasse 730.00 kg
Länge 0.30 m
Durchmesser 4.10 m
Spannweite 29.00 m
Form Box + pan
Hersteller SPXS
Bus-Typ Starlink V2M
Phasenstatus In Orbit
Besitzer/Staat SPXS/US

Große Konstellationen

Loading constellations...